Zurück zum Katalog

SL-16 DEB

AktivLEO
NORAD 22812·DEBRIS·🇷🇺 Russia

Gestartet Dec 25, 1992 von Baikonur Cosmodrome

Loading…

Nächste Überflüge (nächste 24 Stunden)

TLE

AktuellSource: Space-Track

Epoche: Sep 14, 2026, 00:37 UTC

1 22812U 92093JB  26257.02581163  .00000700  00000-0  40313-3 0  9997
2 22812  70.6836 112.8917 0125250 275.7616  82.9233 14.08949155695525

Verfolge SL-16 DEB in Echtzeit mit AllMySat

Download on the App Store